Погода в Шамраевке

Украина / Киевская область     49°46′20″N   29°49′58″E
темп.,
°C
ветер,
м/с
пор.,
м/с
влажн.,
%
обл.,
%
осадки,
мм/ч
давл.,
гПа
погр.,
м
2 августа, пн
пн200:00+21юз348019 0.0 100957
03:00+20ююз368163 0.0 100892
06:00+19ю4108595 0.0 1007195
09:00+25ююз6126538 0.0 1006487
12:00+30зюз694683 0.0 10071522
15:00+25з485756 0.2 1008244
18:00+26зсз585562 0.0 10081511
21:00+21сз59690 0.0 1011290
3 августа, вт
вт300:00+17сз49800 0.0 1013232
03:00+14сз35865 0.0 101397
06:00+13сз35895 0.0 101489
09:00+19сз35695 0.0 1015537
12:00+23сз34525 0.0 10151520
15:00+25зсз3443100 0.0 10142295
18:00+23зсз2360100 0.0 101584
21:00+20ссв235937 0.0 101643
4 августа, ср
ср400:00+19с116299 0.0 101711
03:00+16всв11712 0.0 101711
06:00+15ссв11755 0.0 101711
09:00+21вюв235918 0.0 1018344
12:00+26ююв344480 0.0 10171310
15:00+27ю453985 0.0 10162442
18:00+25ю585497 0.2 10141060
21:00+17ссв4694100 2.6 1016142
5 августа, чт
чт500:00+17всв3697100 4.6 1017165
03:00+16юв4109480 5.6 1015208
06:00+16ю389573 0.1 1014175
09:00+21ю5881100 0.3 1014369
12:00+26ю555988 0.0 1013810
15:00+28ю45498 0.0 10121474
18:00+29ююв475287 0.0 1011991
21:00+23юв49660 0.0 1009152
6 августа, пт
пт600:00+21юв4116898 0.0 1009191
03:00+20ююв4117381 0.0 1008206
06:00+18ююв41281100 0.0 1008233
09:00+23ююв61374100 0.0 1008613
12:00+28ю81148100 0.0 10071385
15:00+26юз3656100 0.0 1007220
18:00+29ююв595077 0.0 1005804
21:00+23з4669100 0.2 1006135